Time,TemperatureF,DewpointF,PressureIn,WindDirection,WindDirectionDegrees,WindSpeedMPH,WindSpeedGustMPH,Humidity,HourlyPrecipIn,Conditions,Clouds,dailyrainin,SolarRadiationWatts/m^2,SoftwareType,DateUTC
2013-02-09 00:00:00,39.8,27.4,30.11,NW,314,1.0,6.0,61,0.00,RA,SCT,0.00,0.0,WeatherDisplay:10.37,2013-02-09 05:00:00,
2013-02-09 00:05:00,39.7,27.3,30.11,NW,315,1.0,4.0,61,0.00,RA,SCT,0.00,0.0,WeatherDisplay:10.37,2013-02-09 05:05:00,
2013-02-09 00:10:00,39.6,27.2,30.11,NW,315,1.0,5.0,61,0.00,BKN,SCT,0.00,0.0,WeatherDisplay:10.37,2013-02-09 05:10:00,
2013-02-09 00:15:00,39.5,27.2,30.11,NW,315,3.0,7.0,61,0.00,BKN,SCT,0.00,0.0,WeatherDisplay:10.37,2013-02-09 05:15:00,
2013-02-09 00:20:00,39.5,27.1,30.11,NW,318,6.0,10.0,61,0.00,BKN,SCT,0.00,0.0,WeatherDisplay:10.37,2013-02-09 05:20:00,
2013-02-09 00:25:00,39.5,27.2,30.12,NW,318,2.0,6.0,61,0.00,BKN,SCT,0.00,0.0,WeatherDisplay:10.37,2013-02-09 05:25:00,
2013-02-09 00:30:00,39.4,27.1,30.12,NW,317,2.0,6.0,61,0.00,BKN,SCT,0.00,0.0,WeatherDisplay:10.37,2013-02-09 05:30:00,
2013-02-09 00:35:00,39.3,27.0,30.12,NW,314,3.0,6.0,61,0.00,BKN,SCT,0.00,0.0,WeatherDisplay:10.37,2013-02-09 05:35:00,
2013-02-09 00:40:00,39.2,26.9,30.12,NW,313,5.0,6.0,61,0.00,BKN,SCT,0.00,0.0,WeatherDisplay:10.37,2013-02-09 05:40:00,
2013-02-09 00:45:00,39.1,26.8,30.11,NW,313,5.0,7.0,61,0.00,BKN,SCT,0.00,0.0,WeatherDisplay:10.37,2013-02-09 05:45:00,
2013-02-09 00:55:00,39.0,26.7,30.11,NW,317,2.0,7.0,61,0.00,BKN,SCT,0.00,0.0,WeatherDisplay:10.37,2013-02-09 05:55:00,
2013-02-09 01:00:00,38.9,26.6,30.11,NW,315,2.0,7.0,61,0.00,BKN,SCT,0.00,0.0,WeatherDisplay:10.37,2013-02-09 06:00:00,
2013-02-09 01:05:00,38.8,26.5,30.10,NW,313,3.0,6.0,61,0.00,BKN,SCT,0.00,0.0,WeatherDisplay:10.37,2013-02-09 06:05:00,
2013-02-09 01:10:00,38.7,26.8,30.10,NW,314,2.0,6.0,62,0.00,BKN,SCT,0.00,0.0,WeatherDisplay:10.37,2013-02-09 06:10:00,
2013-02-09 01:15:00,38.6,26.3,30.10,NW,314,1.0,4.0,61,0.00,BKN,SCT,0.00,0.0,WeatherDisplay:10.37,2013-02-09 06:15:00,
2013-02-09 01:20:00,38.5,26.2,30.10,NW,314,2.0,4.0,61,0.00,BKN,SCT,0.00,0.0,WeatherDisplay:10.37,2013-02-09 06:20:00,
2013-02-09 01:25:00,38.4,26.5,30.11,NW,314,1.0,4.0,62,0.00,BKN,SCT,0.00,0.0,WeatherDisplay:10.37,2013-02-09 06:25:00,
2013-02-09 01:30:00,38.3,26.0,30.11,NW,313,0.0,3.0,61,0.00,BKN,SCT,0.00,0.0,WeatherDisplay:10.37,2013-02-09 06:30:00,
2013-02-09 01:35:00,38.2,26.3,30.11,NW,313,1.0,4.0,62,0.00,BKN,SCT,0.00,0.0,WeatherDisplay:10.37,2013-02-09 06:35:00,
2013-02-09 01:40:00,38.0,26.1,30.11,NW,313,0.0,3.0,62,0.00,BKN,SCT,0.00,0.0,WeatherDisplay:10.37,2013-02-09 06:40:00,
2013-02-09 01:45:00,37.8,25.9,30.12,NW,313,0.0,2.0,62,0.00,BKN,SCT,0.00,0.0,WeatherDisplay:10.37,2013-02-09 06:45:00,
2013-02-09 01:50:00,37.5,26.0,30.11,NW,313,0.0,1.0,63,0.00,BKN,SCT,0.00,0.0,WeatherDisplay:10.37,2013-02-09 06:50:00,
2013-02-09 01:55:00,37.2,25.7,30.11,NW,313,0.0,0.0,63,0.00,BKN,SCT,0.00,0.0,WeatherDisplay:10.37,2013-02-09 06:55:00,
2013-02-09 02:00:00,36.9,25.8,30.11,NW,313,0.0,1.0,64,0.00,BKN,SCT,0.00,0.0,WeatherDisplay:10.37,2013-02-09 07:00:00,
2013-02-09 02:05:00,36.2,25.6,30.11,NW,313,0.0,1.0,65,0.00,BKN,SCT,0.00,0.0,WeatherDisplay:10.37,2013-02-09 07:05:00,
2013-02-09 02:10:00,35.8,25.2,30.11,NW,313,0.0,3.0,65,0.00,BKN,SCT,0.00,0.0,WeatherDisplay:10.37,2013-02-09 07:10:00,
2013-02-09 02:15:00,35.2,25.4,30.10,NW,313,0.0,2.0,67,0.00,BKN,SCT,0.00,0.0,WeatherDisplay:10.37,2013-02-09 07:15:00,
2013-02-09 02:25:00,34.7,25.2,30.10,NW,313,1.0,4.0,68,0.00,BKN,SCT,0.00,0.0,WeatherDisplay:10.37,2013-02-09 07:25:00,
2013-02-09 02:30:00,34.5,25.4,30.10,NW,313,0.0,3.0,69,0.00,BKN,SCT,0.00,0.0,WeatherDisplay:10.37,2013-02-09 07:30:00,
2013-02-09 02:35:00,34.4,25.3,30.11,NW,313,0.0,1.0,69,0.00,BKN,SCT,0.00,0.0,WeatherDisplay:10.37,2013-02-09 07:35:00,
2013-02-09 02:40:00,34.4,25.3,30.11,NW,313,0.0,1.0,69,0.00,BKN,SCT,0.00,0.0,WeatherDisplay:10.37,2013-02-09 07:40:00,
2013-02-09 02:45:00,34.2,25.1,30.11,NW,313,0.0,0.0,69,0.00,BKN,SCT,0.00,0.0,WeatherDisplay:10.37,2013-02-09 07:45:00,
2013-02-09 02:50:00,33.7,24.9,30.11,NW,313,0.0,1.0,70,0.00,BKN,SCT,0.00,0.0,WeatherDisplay:10.37,2013-02-09 07:50:00,
2013-02-09 02:55:00,33.0,24.6,30.11,NW,313,0.0,1.0,71,0.00,BKN,SCT,0.00,0.0,WeatherDisplay:10.37,2013-02-09 07:55:00,
2013-02-09 03:00:00,32.3,24.6,30.12,NW,313,0.0,1.0,73,0.00,BKN,SCT,0.00,0.0,WeatherDisplay:10.37,2013-02-09 08:00:00,
2013-02-09 03:05:00,31.7,24.4,30.12,NW,313,0.0,1.0,74,0.00,BKN,SCT,0.00,0.0,WeatherDisplay:10.37,2013-02-09 08:05:00,
2013-02-09 03:10:00,31.0,24.0,30.12,NW,313,2.0,3.0,75,0.00,BKN,SCT,0.00,0.0,WeatherDisplay:10.37,2013-02-09 08:10:00,
2013-02-09 03:15:00,30.5,24.1,30.12,NW,313,1.0,2.0,77,0.00,BKN,SCT,0.00,0.0,WeatherDisplay:10.37,2013-02-09 08:15:00,
2013-02-09 03:20:00,30.0,24.0,30.12,NW,313,1.0,2.0,78,0.00,BKN,SCT,0.00,0.0,WeatherDisplay:10.37,2013-02-09 08:20:00,
2013-02-09 03:25:00,29.8,24.1,30.13,NW,313,0.0,1.0,79,0.00,BKN,SCT,0.00,0.0,WeatherDisplay:10.37,2013-02-09 08:25:00,
2013-02-09 03:30:00,29.8,24.0,30.13,NW,313,0.0,0.0,79,0.00,BKN,SCT,0.00,0.0,WeatherDisplay:10.37,2013-02-09 08:30:00,
2013-02-09 03:35:00,29.7,24.3,30.13,NW,313,0.0,0.0,80,0.00,BKN,SCT,0.00,0.0,WeatherDisplay:10.37,2013-02-09 08:35:00,
2013-02-09 03:40:00,29.6,24.2,30.13,NW,313,0.0,0.0,80,0.00,BKN,SCT,0.00,0.0,WeatherDisplay:10.37,2013-02-09 08:40:00,
2013-02-09 03:45:00,29.5,24.1,30.13,NW,313,0.0,1.0,80,0.00,BKN,SCT,0.00,0.0,WeatherDisplay:10.37,2013-02-09 08:45:00,
2013-02-09 03:50:00,29.5,24.1,30.13,NW,313,0.0,1.0,80,0.00,BKN,SCT,0.00,0.0,WeatherDisplay:10.37,2013-02-09 08:50:00,
2013-02-09 03:55:00,29.4,24.0,30.13,NW,313,0.0,3.0,80,0.00,BKN,SCT,0.00,0.0,WeatherDisplay:10.37,2013-02-09 08:55:00,
2013-02-09 04:00:00,29.3,23.9,30.14,NW,313,1.0,2.0,80,0.00,BKN,SCT,0.00,0.0,WeatherDisplay:10.37,2013-02-09 09:00:00,
2013-02-09 04:10:00,29.4,24.0,30.14,NW,313,0.0,1.0,80,0.00,BKN,SCT,0.00,0.0,WeatherDisplay:10.37,2013-02-09 09:10:00,
2013-02-09 04:15:00,29.5,24.1,30.14,NW,313,0.0,1.0,80,0.00,BKN,SCT,0.00,0.0,WeatherDisplay:10.37,2013-02-09 09:15:00,
2013-02-09 04:20:00,29.7,24.0,30.14,NW,313,0.0,1.0,79,0.00,BKN,SCT,0.00,0.0,WeatherDisplay:10.37,2013-02-09 09:20:00,
2013-02-09 04:25:00,29.9,23.9,30.14,NW,313,1.0,5.0,78,0.00,BKN,SCT,0.00,0.0,WeatherDisplay:10.37,2013-02-09 09:25:00,
2013-02-09 04:30:00,30.4,24.0,30.14,NW,313,1.0,6.0,77,0.00,BKN,SCT,0.00,0.0,WeatherDisplay:10.37,2013-02-09 09:30:00,
2013-02-09 04:35:00,30.8,24.1,30.14,NW,311,2.0,5.0,76,0.00,BKN,SCT,0.00,0.0,WeatherDisplay:10.37,2013-02-09 09:35:00,
2013-02-09 04:40:00,31.4,24.1,30.15,NW,308,1.0,4.0,74,0.00,BKN,SCT,0.00,0.0,WeatherDisplay:10.37,2013-02-09 09:40:00,
2013-02-09 04:45:00,31.8,24.1,30.15,NW,306,2.0,5.0,73,0.00,BKN,SCT,0.00,0.0,WeatherDisplay:10.37,2013-02-09 09:45:00,
2013-02-09 04:50:00,32.3,24.3,30.15,NW,304,1.0,5.0,72,0.00,BKN,SCT,0.00,0.0,WeatherDisplay:10.37,2013-02-09 09:50:00,
2013-02-09 04:55:00,32.7,24.0,30.15,NW,304,1.0,4.0,70,0.00,BKN,SCT,0.00,0.0,WeatherDisplay:10.37,2013-02-09 09:55:00,
2013-02-09 05:00:00,33.1,24.4,30.16,NW,304,0.0,2.0,70,0.00,BKN,SCT,0.00,0.0,WeatherDisplay:10.37,2013-02-09 10:00:00,
2013-02-09 05:05:00,33.3,24.6,30.15,NW,304,0.0,2.0,70,0.00,BKN,SCT,0.00,0.0,WeatherDisplay:10.37,2013-02-09 10:05:00,
2013-02-09 05:10:00,33.3,24.2,30.15,NW,304,0.0,0.0,69,0.00,BKN,SCT,0.00,0.0,WeatherDisplay:10.37,2013-02-09 10:10:00,
2013-02-09 05:15:00,33.0,24.2,30.16,NW,304,0.0,0.0,70,0.00,BKN,SCT,0.00,0.0,WeatherDisplay:10.37,2013-02-09 10:15:00,
2013-02-09 05:20:00,32.6,23.5,30.16,NW,304,0.0,0.0,69,0.00,BKN,SCT,0.00,0.0,WeatherDisplay:10.37,2013-02-09 10:20:00,
2013-02-09 05:25:00,32.2,23.2,30.15,NW,304,0.0,1.0,69,0.00,BKN,SCT,0.00,0.0,WeatherDisplay:10.37,2013-02-09 10:25:00,
2013-02-09 05:30:00,31.7,23.1,30.16,NW,304,0.0,1.0,70,0.00,BKN,SCT,0.00,0.0,WeatherDisplay:10.37,2013-02-09 10:30:00,
2013-02-09 05:35:00,31.3,23.0,30.16,WNW,303,0.0,0.0,71,0.00,BKN,SCT,0.00,0.0,WeatherDisplay:10.37,2013-02-09 10:35:00,
2013-02-09 05:40:00,31.0,22.7,30.17,NW,304,0.0,0.0,71,0.00,BKN,SCT,0.00,0.0,WeatherDisplay:10.37,2013-02-09 10:40:00,
2013-02-09 05:45:00,30.6,22.6,30.17,NW,304,0.0,0.0,72,0.00,BKN,SCT,0.00,0.0,WeatherDisplay:10.37,2013-02-09 10:45:00,
2013-02-09 05:50:00,30.3,22.7,30.17,NW,304,0.0,0.0,73,0.00,BKN,SCT,0.00,0.0,WeatherDisplay:10.37,2013-02-09 10:50:00,
2013-02-09 05:55:00,30.0,22.4,30.18,NW,304,0.0,0.0,73,0.00,BKN,SCT,0.00,0.0,WeatherDisplay:10.37,2013-02-09 10:55:00,
2013-02-09 06:00:00,29.7,22.5,30.18,NW,304,0.0,0.0,74,0.00,BKN,SCT,0.00,0.0,WeatherDisplay:10.37,2013-02-09 11:00:00,
2013-02-09 06:05:00,29.4,22.7,30.18,NW,304,0.0,1.0,76,0.00,BKN,SCT,0.00,0.0,WeatherDisplay:10.37,2013-02-09 11:05:00,
2013-02-09 06:10:00,29.0,22.7,30.19,NW,304,0.0,1.0,77,0.00,BKN,SCT,0.00,0.0,WeatherDisplay:10.37,2013-02-09 11:10:00,
2013-02-09 06:20:00,28.6,22.9,30.19,NW,304,0.0,0.0,79,0.00,BKN,SCT,0.00,0.0,WeatherDisplay:10.37,2013-02-09 11:20:00,
2013-02-09 06:25:00,28.5,22.8,30.19,NW,304,0.0,0.0,79,0.00,BKN,SCT,0.00,0.0,WeatherDisplay:10.37,2013-02-09 11:25:00,
2013-02-09 06:30:00,28.3,22.6,30.20,NW,304,0.0,0.0,79,0.00,BKN,SCT,0.00,0.0,WeatherDisplay:10.37,2013-02-09 11:30:00,
2013-02-09 06:35:00,28.1,22.4,30.20,NW,304,0.0,0.0,79,0.00,BKN,SCT,0.00,0.0,WeatherDisplay:10.37,2013-02-09 11:35:00,
2013-02-09 06:40:00,27.9,22.5,30.20,NW,304,0.0,0.0,80,0.00,BKN,SCT,0.00,0.0,WeatherDisplay:10.37,2013-02-09 11:40:00,
2013-02-09 06:45:00,27.8,22.4,30.20,NW,304,0.0,0.0,80,0.00,BKN,SCT,0.00,0.0,WeatherDisplay:10.37,2013-02-09 11:45:00,
2013-02-09 06:50:00,27.7,22.3,30.21,NW,304,0.0,0.0,80,0.00,BKN,SCT,0.00,0.0,WeatherDisplay:10.37,2013-02-09 11:50:00,
2013-02-09 06:55:00,27.6,22.2,30.21,NW,304,0.0,0.0,80,0.00,BKN,SCT,0.00,0.0,WeatherDisplay:10.37,2013-02-09 11:55:00,
2013-02-09 07:00:00,27.5,22.1,30.21,NW,304,0.0,0.0,80,0.00,BKN,SCT,0.00,0.0,WeatherDisplay:10.37,2013-02-09 12:00:00,
2013-02-09 07:05:00,27.4,22.0,30.22,NW,304,0.0,0.0,80,0.00,BKN,SCT,0.00,0.0,WeatherDisplay:10.37,2013-02-09 12:05:00,
2013-02-09 07:10:00,27.3,21.9,30.22,WNW,303,0.0,0.0,80,0.00,BKN,SCT,0.00,0.0,WeatherDisplay:10.37,2013-02-09 12:10:00,
2013-02-09 07:15:00,27.2,21.8,30.23,NW,304,0.0,0.0,80,0.00,BKN,SCT,0.00,0.0,WeatherDisplay:10.37,2013-02-09 12:15:00,
2013-02-09 07:20:00,27.0,21.9,30.23,NW,304,0.0,0.0,81,0.00,BKN,SCT,0.00,7.0,WeatherDisplay:10.37,2013-02-09 12:20:00,
2013-02-09 07:25:00,26.9,21.8,30.23,NW,304,0.0,1.0,81,0.00,BKN,SCT,0.00,9.0,WeatherDisplay:10.37,2013-02-09 12:25:00,
2013-02-09 07:30:00,26.7,21.9,30.24,NW,304,0.0,1.0,82,0.00,BKN,SCT,0.00,12.0,WeatherDisplay:10.37,2013-02-09 12:30:00,
2013-02-09 07:35:00,26.6,21.8,30.24,NW,304,0.0,0.0,82,0.00,BKN,SCT,0.00,21.0,WeatherDisplay:10.37,2013-02-09 12:35:00,
2013-02-09 07:40:00,26.6,22.1,30.24,NW,304,0.0,0.0,83,0.00,BKN,SCT,0.00,39.0,WeatherDisplay:10.37,2013-02-09 12:40:00,
2013-02-09 07:45:00,26.7,22.2,30.24,NW,304,0.0,0.0,83,0.00,CLR,SCT,0.00,79.0,WeatherDisplay:10.37,2013-02-09 12:45:00,
2013-02-09 07:50:00,26.9,22.7,30.24,NW,304,0.0,0.0,84,0.00,CLR,SCT,0.00,98.0,WeatherDisplay:10.37,2013-02-09 12:50:00,
2013-02-09 07:55:00,27.2,23.0,30.25,NW,304,0.0,0.0,84,0.00,CLR,SCT,0.00,121.0,WeatherDisplay:10.37,2013-02-09 12:55:00,
2013-02-09 08:00:00,27.4,23.2,30.25,NW,304,0.0,0.0,84,0.00,CLR,SCT,0.00,142.0,WeatherDisplay:10.37,2013-02-09 13:00:00,
2013-02-09 09:05:00,35.7,27.2,30.28,SSW,192,0.0,2.0,71,0.00,CLR,SCT,0.00,330.0,WeatherDisplay:10.37,2013-02-09 14:05:00,
2013-02-09 09:10:00,36.4,27.5,30.28,SSW,196,1.0,3.0,70,0.00,CLR,SCT,0.00,348.0,WeatherDisplay:10.37,2013-02-09 14:10:00,
2013-02-09 09:15:00,37.1,27.5,30.28,SSW,198,2.0,4.0,68,0.00,CLR,SCT,0.00,364.0,WeatherDisplay:10.37,2013-02-09 14:15:00,
2013-02-09 09:25:00,38.4,26.9,30.28,West,274,1.0,3.0,63,0.00,CLR,SCT,0.00,392.0,WeatherDisplay:10.37,2013-02-09 14:25:00,
2013-02-09 09:30:00,38.9,26.6,30.29,WNW,286,3.0,6.0,61,0.00,CLR,SCT,0.00,411.0,WeatherDisplay:10.37,2013-02-09 14:30:00,
2013-02-09 09:35:00,39.5,27.1,30.29,WNW,283,1.0,7.0,61,0.00,CLR,SCT,0.00,425.0,WeatherDisplay:10.37,2013-02-09 14:35:00,
2013-02-09 09:40:00,39.9,27.6,30.29,West,279,0.0,5.0,61,0.00,CLR,SCT,0.00,443.0,WeatherDisplay:10.37,2013-02-09 14:40:00,
2013-02-09 09:45:00,40.5,27.7,30.29,WNW,290,1.0,6.0,60,0.00,CLR,SCT,0.00,455.0,WeatherDisplay:10.37,2013-02-09 14:45:00,
2013-02-09 09:50:00,41.0,27.4,30.29,NW,307,0.0,4.0,58,0.00,CLR,SCT,0.00,469.0,WeatherDisplay:10.37,2013-02-09 14:50:00,
2013-02-09 09:55:00,41.5,27.0,30.29,NW,309,2.0,5.0,56,0.00,CLR,SCT,0.00,485.0,WeatherDisplay:10.37,2013-02-09 14:55:00,
2013-02-09 10:00:00,42.1,26.1,30.29,NW,309,2.0,6.0,53,0.00,CLR,SCT,0.00,501.0,WeatherDisplay:10.37,2013-02-09 15:00:00,
2013-02-09 10:05:00,42.6,27.5,30.29,NW,310,0.0,3.0,55,0.00,CLR,SCT,0.00,515.0,WeatherDisplay:10.37,2013-02-09 15:05:00,
2013-02-09 10:10:00,43.1,26.2,30.30,NW,307,2.0,5.0,51,0.00,CLR,SCT,0.00,527.0,WeatherDisplay:10.37,2013-02-09 15:10:00,
2013-02-09 10:15:00,43.6,26.1,30.30,NW,304,1.0,4.0,50,0.00,CLR,SCT,0.00,540.0,WeatherDisplay:10.37,2013-02-09 15:15:00,
2013-02-09 10:20:00,44.0,25.1,30.30,WNW,303,3.0,6.0,47,0.00,CLR,SCT,0.00,554.0,WeatherDisplay:10.37,2013-02-09 15:20:00,
2013-02-09 10:25:00,44.5,23.4,30.30,WNW,303,2.0,5.0,43,0.00,CLR,SCT,0.00,566.0,WeatherDisplay:10.37,2013-02-09 15:25:00,
2013-02-09 10:30:00,45.0,23.3,30.30,NW,304,0.0,5.0,42,0.00,CLR,SCT,0.00,575.0,WeatherDisplay:10.37,2013-02-09 15:30:00,
2013-02-09 10:35:00,45.3,23.5,30.31,NW,304,1.0,5.0,42,0.00,CLR,SCT,0.00,594.0,WeatherDisplay:10.37,2013-02-09 15:35:00,
2013-02-09 10:40:00,45.5,22.0,30.30,NW,304,0.0,4.0,39,0.00,CLR,SCT,0.00,605.0,WeatherDisplay:10.37,2013-02-09 15:40:00,
2013-02-09 10:45:00,45.8,22.8,30.30,NW,304,0.0,5.0,40,0.00,CLR,SCT,0.00,617.0,WeatherDisplay:10.37,2013-02-09 15:45:00,
2013-02-09 10:50:00,46.3,22.7,30.30,NW,304,1.0,5.0,39,0.00,CLR,SCT,0.00,628.0,WeatherDisplay:10.37,2013-02-09 15:50:00,
2013-02-09 10:55:00,46.6,22.3,30.31,WNW,298,3.0,7.0,38,0.00,CLR,SCT,0.00,636.0,WeatherDisplay:10.37,2013-02-09 15:55:00,
2013-02-09 11:00:00,46.8,22.5,30.31,WNW,294,0.0,6.0,38,0.00,CLR,SCT,0.00,642.0,WeatherDisplay:10.37,2013-02-09 16:00:00,
2013-02-09 11:05:00,47.2,23.5,30.31,WNW,289,2.0,6.0,39,0.00,CLR,SCT,0.00,652.0,WeatherDisplay:10.37,2013-02-09 16:05:00,
2013-02-09 11:10:00,47.5,23.1,30.31,WNW,285,1.0,6.0,38,0.00,CLR,SCT,0.00,663.0,WeatherDisplay:10.37,2013-02-09 16:10:00,
2013-02-09 11:15:00,47.9,23.5,30.31,WNW,290,0.0,6.0,38,0.00,CLR,SCT,0.00,668.0,WeatherDisplay:10.37,2013-02-09 16:15:00,
2013-02-09 11:20:00,48.1,22.4,30.31,NW,304,3.0,6.0,36,0.00,CLR,SCT,0.00,675.0,WeatherDisplay:10.37,2013-02-09 16:20:00,
2013-02-09 11:25:00,48.2,23.7,30.31,NW,305,2.0,6.0,38,0.00,CLR,SCT,0.00,687.0,WeatherDisplay:10.37,2013-02-09 16:25:00,
2013-02-09 11:30:00,48.3,22.5,30.31,WNW,298,1.0,5.0,36,0.00,CLR,SCT,0.00,694.0,WeatherDisplay:10.37,2013-02-09 16:30:00,
2013-02-09 11:35:00,48.5,22.7,30.31,WNW,292,2.0,6.0,36,0.00,CLR,SCT,0.00,700.0,WeatherDisplay:10.37,2013-02-09 16:35:00,
2013-02-09 11:40:00,48.7,24.2,30.31,WNW,288,1.0,7.0,38,0.00,CLR,SCT,0.00,705.0,WeatherDisplay:10.37,2013-02-09 16:40:00,
2013-02-09 11:45:00,48.8,24.9,30.31,WNW,298,2.0,10.0,39,0.00,CLR,SCT,0.00,710.0,WeatherDisplay:10.37,2013-02-09 16:45:00,
2013-02-09 11:50:00,48.9,23.8,30.31,NW,308,1.0,6.0,37,0.00,CLR,SCT,0.00,717.0,WeatherDisplay:10.37,2013-02-09 16:50:00,
2013-02-09 11:55:00,49.1,23.2,30.31,NW,319,0.0,6.0,36,0.00,CLR,SCT,0.00,722.0,WeatherDisplay:10.37,2013-02-09 16:55:00,
2013-02-09 12:00:00,49.3,23.4,30.31,NW,319,1.0,6.0,36,0.00,CLR,SCT,0.00,728.0,WeatherDisplay:10.37,2013-02-09 17:00:00,
2013-02-09 12:05:00,49.4,23.6,30.31,NW,317,0.0,5.0,36,0.00,CLR,SCT,0.00,729.0,WeatherDisplay:10.37,2013-02-09 17:05:00,
2013-02-09 12:10:00,49.8,24.5,30.31,NW,325,1.0,7.0,37,0.00,CLR,SCT,0.00,735.0,WeatherDisplay:10.37,2013-02-09 17:10:00,
2013-02-09 12:15:00,49.9,24.0,30.31,NE,37,3.0,7.0,36,0.00,CLR,SCT,0.00,738.0,WeatherDisplay:10.37,2013-02-09 17:15:00,
2013-02-09 12:20:00,49.9,23.3,30.31,NE,49,0.0,4.0,35,0.00,CLR,SCT,0.00,742.0,WeatherDisplay:10.37,2013-02-09 17:20:00,
2013-02-09 12:25:00,50.1,24.2,30.31,NE,43,1.0,5.0,36,0.00,CLR,SCT,0.00,747.0,WeatherDisplay:10.37,2013-02-09 17:25:00,
2013-02-09 12:30:00,50.6,24.6,30.31,ENE,66,0.0,6.0,36,0.00,CLR,SCT,0.00,749.0,WeatherDisplay:10.37,2013-02-09 17:30:00,
2013-02-09 12:35:00,51.0,24.3,30.30,East,89,0.0,3.0,35,0.00,CLR,SCT,0.00,749.0,WeatherDisplay:10.37,2013-02-09 17:35:00,
2013-02-09 12:40:00,51.4,25.3,30.30,South,171,3.0,7.0,36,0.00,CLR,SCT,0.00,752.0,WeatherDisplay:10.37,2013-02-09 17:40:00,
2013-02-09 12:45:00,51.5,24.7,30.30,SW,232,0.0,5.0,35,0.00,CLR,SCT,0.00,751.0,WeatherDisplay:10.37,2013-02-09 17:45:00,
2013-02-09 12:50:00,51.8,24.3,30.30,WSW,238,0.0,2.0,34,0.00,CLR,SCT,0.00,747.0,WeatherDisplay:10.37,2013-02-09 17:50:00,
2013-02-09 12:55:00,52.1,24.5,30.30,WSW,246,2.0,4.0,34,0.00,CLR,SCT,0.00,745.0,WeatherDisplay:10.37,2013-02-09 17:55:00,
2013-02-09 13:00:00,52.1,22.4,30.29,WSW,254,0.0,3.0,31,0.00,CLR,SCT,0.00,745.0,WeatherDisplay:10.37,2013-02-09 18:00:00,
2013-02-09 13:05:00,52.4,24.1,30.30,WSW,255,0.0,1.0,33,0.00,CLR,SCT,0.00,744.0,WeatherDisplay:10.37,2013-02-09 18:05:00,
2013-02-09 13:10:00,52.8,25.2,30.30,WSW,256,0.0,2.0,34,0.00,CLR,SCT,0.00,740.0,WeatherDisplay:10.37,2013-02-09 18:10:00,
2013-02-09 13:15:00,53.1,24.7,30.30,SW,234,3.0,8.0,33,0.00,CLR,SCT,0.00,738.0,WeatherDisplay:10.37,2013-02-09 18:15:00,
2013-02-09 13:20:00,53.3,23.4,30.29,SW,228,1.0,5.0,31,0.00,CLR,SCT,0.00,737.0,WeatherDisplay:10.37,2013-02-09 18:20:00,
2013-02-09 13:25:00,53.6,24.4,30.29,SW,229,0.0,3.0,32,0.00,CLR,SCT,0.00,731.0,WeatherDisplay:10.37,2013-02-09 18:25:00,
2013-02-09 13:30:00,53.8,23.8,30.29,SW,236,0.0,1.0,31,0.00,CLR,SCT,0.00,729.0,WeatherDisplay:10.37,2013-02-09 18:30:00,
2013-02-09 13:35:00,53.9,24.0,30.29,NNW,329,5.0,7.0,31,0.00,CLR,SCT,0.00,724.0,WeatherDisplay:10.37,2013-02-09 18:35:00,
2013-02-09 13:40:00,54.0,22.4,30.29,NW,326,1.0,7.0,29,0.00,CLR,SCT,0.00,717.0,WeatherDisplay:10.37,2013-02-09 18:40:00,
2013-02-09 13:45:00,54.1,23.3,30.28,North,350,5.0,6.0,30,0.00,CLR,SCT,0.00,714.0,WeatherDisplay:10.37,2013-02-09 18:45:00,
2013-02-09 13:50:00,54.1,20.8,30.28,North,6,0.0,6.0,27,0.00,CLR,SCT,0.00,707.0,WeatherDisplay:10.37,2013-02-09 18:50:00,
2013-02-09 13:55:00,53.9,21.5,30.28,NNE,16,2.0,4.0,28,0.00,CLR,SCT,0.00,701.0,WeatherDisplay:10.37,2013-02-09 18:55:00,
2013-02-09 14:00:00,54.0,22.4,30.28,NNE,26,2.0,4.0,29,0.00,CLR,SCT,0.00,698.0,WeatherDisplay:10.37,2013-02-09 19:00:00,
2013-02-09 14:05:00,54.2,22.6,30.28,NNE,24,1.0,3.0,29,0.00,CLR,SCT,0.00,693.0,WeatherDisplay:10.37,2013-02-09 19:05:00,
2013-02-09 14:10:00,54.3,21.8,30.28,NNE,23,1.0,3.0,28,0.00,CLR,SCT,0.00,680.0,WeatherDisplay:10.37,2013-02-09 19:10:00,
2013-02-09 14:15:00,54.4,21.9,30.28,NNE,31,1.0,4.0,28,0.00,CLR,SCT,0.00,671.0,WeatherDisplay:10.37,2013-02-09 19:15:00,
2013-02-09 14:20:00,54.4,22.8,30.28,NE,38,1.0,4.0,29,0.00,CLR,SCT,0.00,668.0,WeatherDisplay:10.37,2013-02-09 19:20:00,
2013-02-09 14:25:00,54.5,22.8,30.28,NE,38,0.0,3.0,29,0.00,CLR,SCT,0.00,663.0,WeatherDisplay:10.37,2013-02-09 19:25:00,
2013-02-09 14:30:00,54.7,22.2,30.28,NE,38,0.0,4.0,28,0.00,CLR,SCT,0.00,650.0,WeatherDisplay:10.37,2013-02-09 19:30:00,
2013-02-09 14:35:00,55.0,24.1,30.28,NNE,25,0.0,5.0,30,0.00,CLR,SCT,0.00,640.0,WeatherDisplay:10.37,2013-02-09 19:35:00,
2013-02-09 14:40:00,55.5,24.5,30.27,NNE,14,1.0,5.0,30,0.00,CLR,SCT,0.00,629.0,WeatherDisplay:10.37,2013-02-09 19:40:00,
2013-02-09 14:45:00,55.9,23.2,30.28,North,7,1.0,5.0,28,0.00,CLR,SCT,0.00,615.0,WeatherDisplay:10.37,2013-02-09 19:45:00,
2013-02-09 14:50:00,56.2,23.5,30.27,North,5,0.0,3.0,28,0.00,CLR,SCT,0.00,608.0,WeatherDisplay:10.37,2013-02-09 19:50:00,
2013-02-09 14:55:00,56.5,22.0,30.27,ENE,74,0.0,5.0,26,0.00,CLR,SCT,0.00,591.0,WeatherDisplay:10.37,2013-02-09 19:55:00,
2013-02-09 15:00:00,56.7,23.1,30.27,South,173,5.0,7.0,27,0.00,CLR,SCT,0.00,577.0,WeatherDisplay:10.37,2013-02-09 20:00:00,
2013-02-09 15:05:00,56.9,22.3,30.27,WSW,237,0.0,6.0,26,0.00,CLR,SCT,0.00,561.0,WeatherDisplay:10.37,2013-02-09 20:05:00,
2013-02-09 15:15:00,57.2,21.7,30.27,WSW,240,2.0,5.0,25,0.00,CLR,SCT,0.00,543.0,WeatherDisplay:10.37,2013-02-09 20:15:00,
2013-02-09 15:20:00,57.4,20.8,30.27,WSW,240,1.0,4.0,24,0.00,CLR,SCT,0.00,533.0,WeatherDisplay:10.37,2013-02-09 20:20:00,
2013-02-09 15:25:00,57.5,22.8,30.27,WSW,240,1.0,4.0,26,0.00,CLR,SCT,0.00,515.0,WeatherDisplay:10.37,2013-02-09 20:25:00,
2013-02-09 15:30:00,57.7,23.0,30.27,WSW,241,5.0,8.0,26,0.00,CLR,SCT,0.00,503.0,WeatherDisplay:10.37,2013-02-09 20:30:00,
2013-02-09 15:35:00,57.7,21.1,30.27,SW,235,1.0,5.0,24,0.00,CLR,SCT,0.00,494.0,WeatherDisplay:10.37,2013-02-09 20:35:00,
2013-02-09 15:40:00,57.5,21.9,30.27,SW,223,1.0,3.0,25,0.00,CLR,SCT,0.00,480.0,WeatherDisplay:10.37,2013-02-09 20:40:00,
2013-02-09 15:45:00,57.3,21.7,30.27,SW,220,0.0,3.0,25,0.00,CLR,SCT,0.00,466.0,WeatherDisplay:10.37,2013-02-09 20:45:00,
2013-02-09 15:50:00,57.3,21.8,30.27,SW,220,0.0,2.0,25,0.00,CLR,SCT,0.00,450.0,WeatherDisplay:10.37,2013-02-09 20:50:00,
2013-02-09 15:55:00,57.6,22.0,30.26,SW,220,0.0,3.0,25,0.00,CLR,SCT,0.00,434.0,WeatherDisplay:10.37,2013-02-09 20:55:00,
2013-02-09 16:00:00,57.7,21.1,30.26,SW,220,2.0,3.0,24,0.00,CLR,SCT,0.00,417.0,WeatherDisplay:10.37,2013-02-09 21:00:00,
2013-02-09 16:05:00,57.7,21.1,30.26,North,5,2.0,9.0,24,0.00,CLR,SCT,0.00,401.0,WeatherDisplay:10.37,2013-02-09 21:05:00,
2013-02-09 16:10:00,57.6,21.0,30.26,NNE,21,1.0,3.0,24,0.00,CLR,SCT,0.00,387.0,WeatherDisplay:10.37,2013-02-09 21:10:00,
2013-02-09 16:15:00,57.7,20.1,30.26,NNE,32,1.0,4.0,23,0.00,CLR,SCT,0.00,371.0,WeatherDisplay:10.37,2013-02-09 21:15:00,
2013-02-09 16:20:00,57.5,19.9,30.26,NNE,32,0.0,3.0,23,0.00,FEW,SCT,0.00,352.0,WeatherDisplay:10.37,2013-02-09 21:20:00,
2013-02-09 16:25:00,57.5,21.9,30.26,NNE,32,2.0,4.0,25,0.00,FEW,SCT,0.00,339.0,WeatherDisplay:10.37,2013-02-09 21:25:00,
2013-02-09 16:30:00,57.7,21.1,30.26,NNE,31,2.0,4.0,24,0.00,FEW,SCT,0.00,322.0,WeatherDisplay:10.37,2013-02-09 21:30:00,
2013-02-09 16:35:00,57.9,21.3,30.26,NNE,31,0.0,2.0,24,0.00,FEW,SCT,0.00,302.0,WeatherDisplay:10.37,2013-02-09 21:35:00,
2013-02-09 16:40:00,58.1,20.4,30.26,NNE,30,0.0,1.0,23,0.00,FEW,SCT,0.00,288.0,WeatherDisplay:10.37,2013-02-09 21:40:00,
2013-02-09 16:45:00,58.2,20.5,30.26,NNE,30,1.0,3.0,23,0.00,FEW,SCT,0.00,271.0,WeatherDisplay:10.37,2013-02-09 21:45:00,
2013-02-09 16:50:00,58.4,22.6,30.26,NNE,30,0.0,2.0,25,0.00,FEW,SCT,0.00,251.0,WeatherDisplay:10.37,2013-02-09 21:50:00,
2013-02-09 16:55:00,58.4,21.7,30.26,NNE,30,0.0,1.0,24,0.00,FEW,SCT,0.00,234.0,WeatherDisplay:10.37,2013-02-09 21:55:00,
2013-02-09 17:00:00,58.6,22.8,30.26,NNE,30,0.0,1.0,25,0.00,SCT,SCT,0.00,214.0,WeatherDisplay:10.37,2013-02-09 22:00:00,
2013-02-09 17:05:00,58.9,25.8,30.27,NNE,30,0.0,0.0,28,0.00,SCT,SCT,0.00,195.0,WeatherDisplay:10.37,2013-02-09 22:05:00,
2013-02-09 17:10:00,59.0,25.9,30.27,NNE,30,0.0,0.0,28,0.00,SCT,SCT,0.00,178.0,WeatherDisplay:10.37,2013-02-09 22:10:00,
2013-02-09 17:15:00,59.0,21.2,30.27,NNE,30,0.0,1.0,23,0.00,SCT,SCT,0.00,160.0,WeatherDisplay:10.37,2013-02-09 22:15:00,
2013-02-09 17:20:00,58.8,23.0,30.27,NNE,30,1.0,2.0,25,0.00,SCT,SCT,0.00,146.0,WeatherDisplay:10.37,2013-02-09 22:20:00,
2013-02-09 17:25:00,57.7,21.1,30.27,NNE,30,2.0,3.0,24,0.00,SCT,SCT,0.00,128.0,WeatherDisplay:10.37,2013-02-09 22:25:00,
2013-02-09 17:30:00,56.9,22.3,30.27,NNE,30,0.0,2.0,26,0.00,BKN,SCT,0.00,72.0,WeatherDisplay:10.37,2013-02-09 22:30:00,
2013-02-09 17:35:00,56.2,22.6,30.27,NNE,30,1.0,2.0,27,0.00,BKN,SCT,0.00,81.0,WeatherDisplay:10.37,2013-02-09 22:35:00,
2013-02-09 17:40:00,55.3,21.8,30.27,NNE,30,1.0,2.0,27,0.00,BKN,SCT,0.00,46.0,WeatherDisplay:10.37,2013-02-09 22:40:00,
2013-02-09 17:45:00,54.5,22.9,30.27,NNE,30,0.0,2.0,29,0.00,BKN,SCT,0.00,12.0,WeatherDisplay:10.37,2013-02-09 22:45:00,
2013-02-09 17:50:00,53.7,23.8,30.27,NNE,30,0.0,2.0,31,0.00,BKN,SCT,0.00,9.0,WeatherDisplay:10.37,2013-02-09 22:50:00,
2013-02-09 17:55:00,52.9,24.6,30.27,NNE,30,0.0,2.0,33,0.00,BKN,SCT,0.00,5.0,WeatherDisplay:10.37,2013-02-09 22:55:00,
2013-02-09 18:00:00,51.8,26.3,30.28,NNE,30,0.0,1.0,37,0.00,BKN,SCT,0.00,0.0,WeatherDisplay:10.37,2013-02-09 23:00:00,
2013-02-09 18:05:00,50.5,24.5,30.27,NNE,30,1.0,3.0,36,0.00,BKN,SCT,0.00,0.0,WeatherDisplay:10.37,2013-02-09 23:05:00,
2013-02-09 18:10:00,49.6,23.0,30.27,NNE,30,0.0,1.0,35,0.00,BKN,SCT,0.00,0.0,WeatherDisplay:10.37,2013-02-09 23:10:00,
2013-02-09 18:15:00,49.2,23.3,30.27,NNE,30,0.0,1.0,36,0.00,BKN,SCT,0.00,0.0,WeatherDisplay:10.37,2013-02-09 23:15:00,
2013-02-09 18:20:00,48.6,24.7,30.28,NNE,30,0.0,1.0,39,0.00,BKN,SCT,0.00,0.0,WeatherDisplay:10.37,2013-02-09 23:20:00,
2013-02-09 18:25:00,47.7,23.9,30.28,NNE,30,1.0,2.0,39,0.00,BKN,SCT,0.00,0.0,WeatherDisplay:10.37,2013-02-09 23:25:00,
2013-02-09 18:35:00,46.3,25.5,30.28,NNE,30,0.0,1.0,44,0.00,BKN,SCT,0.00,0.0,WeatherDisplay:10.37,2013-02-09 23:35:00,
2013-02-09 18:40:00,45.6,24.9,30.28,NNE,30,0.0,1.0,44,0.00,BKN,SCT,0.00,0.0,WeatherDisplay:10.37,2013-02-09 23:40:00,
2013-02-09 18:45:00,45.0,26.0,30.28,NNE,30,0.0,1.0,47,0.00,BKN,SCT,0.00,0.0,WeatherDisplay:10.37,2013-02-09 23:45:00,
2013-02-09 18:50:00,44.4,24.9,30.29,NNE,30,0.0,1.0,46,0.00,BKN,SCT,0.00,0.0,WeatherDisplay:10.37,2013-02-09 23:50:00,
2013-02-09 18:55:00,44.2,25.2,30.29,NNE,30,0.0,1.0,47,0.00,BKN,SCT,0.00,0.0,WeatherDisplay:10.37,2013-02-09 23:55:00,
2013-02-09 19:00:00,44.0,25.0,30.29,NNE,30,0.0,0.0,47,0.00,BKN,SCT,0.00,0.0,WeatherDisplay:10.37,2013-02-10 00:00:00,
2013-02-09 19:05:00,43.4,25.0,30.29,NNE,30,0.0,1.0,48,0.00,BKN,SCT,0.00,0.0,WeatherDisplay:10.37,2013-02-10 00:05:00,
2013-02-09 19:10:00,42.8,25.5,30.29,NNE,30,0.0,1.0,50,0.00,BKN,SCT,0.00,0.0,WeatherDisplay:10.37,2013-02-10 00:10:00,
2013-02-09 19:15:00,42.6,26.2,30.29,NNE,30,0.0,0.0,52,0.00,BKN,SCT,0.00,0.0,WeatherDisplay:10.37,2013-02-10 00:15:00,
2013-02-09 19:20:00,42.2,25.3,30.29,NNE,30,0.0,2.0,51,0.00,BKN,SCT,0.00,0.0,WeatherDisplay:10.37,2013-02-10 00:20:00,
2013-02-09 19:25:00,41.9,26.0,30.30,NNE,30,0.0,1.0,53,0.00,BKN,SCT,0.00,0.0,WeatherDisplay:10.37,2013-02-10 00:25:00,
2013-02-09 19:30:00,41.6,26.1,30.30,NNE,30,0.0,0.0,54,0.00,BKN,SCT,0.00,0.0,WeatherDisplay:10.37,2013-02-10 00:30:00,
2013-02-09 19:35:00,41.3,25.9,30.30,NNE,30,0.0,0.0,54,0.00,BKN,SCT,0.00,0.0,WeatherDisplay:10.37,2013-02-10 00:35:00,
2013-02-09 19:45:00,39.9,25.9,30.31,NNE,30,0.0,2.0,57,0.00,BKN,SCT,0.00,0.0,WeatherDisplay:10.37,2013-02-10 00:45:00,
2013-02-09 19:50:00,39.6,25.6,30.31,NNE,30,0.0,2.0,57,0.00,BKN,SCT,0.00,0.0,WeatherDisplay:10.37,2013-02-10 00:50:00,
2013-02-09 19:55:00,39.4,25.8,30.31,NNE,30,0.0,1.0,58,0.00,BKN,SCT,0.00,0.0,WeatherDisplay:10.37,2013-02-10 00:55:00,
2013-02-09 20:00:00,39.1,25.6,30.31,NNE,30,0.0,1.0,58,0.00,BKN,SCT,0.00,0.0,WeatherDisplay:10.37,2013-02-10 01:00:00,
2013-02-09 20:05:00,38.9,26.2,30.31,NNE,30,0.0,1.0,60,0.00,BKN,SCT,0.00,0.0,WeatherDisplay:10.37,2013-02-10 01:05:00,
2013-02-09 20:10:00,38.7,26.0,30.31,NNE,30,0.0,0.0,60,0.00,BKN,SCT,0.00,0.0,WeatherDisplay:10.37,2013-02-10 01:10:00,
2013-02-09 20:20:00,38.1,25.5,30.32,NNE,30,0.0,0.0,60,0.00,BKN,SCT,0.00,0.0,WeatherDisplay:10.37,2013-02-10 01:20:00,
2013-02-09 20:25:00,37.7,25.5,30.32,NNE,30,1.0,2.0,61,0.00,BKN,SCT,0.00,0.0,WeatherDisplay:10.37,2013-02-10 01:25:00,
2013-02-09 20:30:00,37.4,24.8,30.31,NNE,30,0.0,2.0,60,0.00,BKN,SCT,0.00,0.0,WeatherDisplay:10.37,2013-02-10 01:30:00,
2013-02-09 20:35:00,37.2,25.0,30.32,NNE,30,0.0,2.0,61,0.00,BKN,SCT,0.00,0.0,WeatherDisplay:10.37,2013-02-10 01:35:00,
2013-02-09 20:45:00,36.8,25.0,30.32,NNE,30,0.0,1.0,62,0.00,BKN,SCT,0.00,0.0,WeatherDisplay:10.37,2013-02-10 01:45:00,
2013-02-09 20:50:00,36.6,25.6,30.32,NNE,30,0.0,1.0,64,0.00,BKN,SCT,0.00,0.0,WeatherDisplay:10.37,2013-02-10 01:50:00,
2013-02-09 21:00:00,36.1,25.1,30.32,NNE,30,0.0,1.0,64,0.00,BKN,SCT,0.00,0.0,WeatherDisplay:10.37,2013-02-10 02:00:00,
2013-02-09 21:05:00,36.0,25.4,30.33,NNE,30,0.0,0.0,65,0.00,BKN,SCT,0.00,0.0,WeatherDisplay:10.37,2013-02-10 02:05:00,
2013-02-09 21:10:00,35.8,24.8,30.33,NNE,30,0.0,0.0,64,0.00,BKN,SCT,0.00,0.0,WeatherDisplay:10.37,2013-02-10 02:10:00,
2013-02-09 21:15:00,35.6,25.0,30.33,NNE,30,0.0,0.0,65,0.00,BKN,SCT,0.00,0.0,WeatherDisplay:10.37,2013-02-10 02:15:00,
2013-02-09 21:20:00,35.3,24.7,30.33,NNE,30,0.0,1.0,65,0.00,BKN,SCT,0.00,0.0,WeatherDisplay:10.37,2013-02-10 02:20:00,
2013-02-09 21:25:00,35.0,25.1,30.33,NNE,30,0.0,1.0,67,0.00,BKN,SCT,0.00,0.0,WeatherDisplay:10.37,2013-02-10 02:25:00,
2013-02-09 21:30:00,34.6,24.8,30.33,NNE,30,0.0,0.0,67,0.00,BKN,SCT,0.00,0.0,WeatherDisplay:10.37,2013-02-10 02:30:00,
2013-02-09 21:35:00,34.4,24.9,30.33,NNE,30,0.0,0.0,68,0.00,BKN,SCT,0.00,0.0,WeatherDisplay:10.37,2013-02-10 02:35:00,
2013-02-09 21:40:00,34.3,24.9,30.34,NNE,30,0.0,1.0,68,0.00,BKN,SCT,0.00,0.0,WeatherDisplay:10.37,2013-02-10 02:40:00,
2013-02-09 21:45:00,34.1,24.6,30.34,NNE,30,0.0,0.0,68,0.00,BKN,SCT,0.00,0.0,WeatherDisplay:10.37,2013-02-10 02:45:00,
2013-02-09 21:50:00,33.8,24.7,30.35,NNE,30,0.0,0.0,69,0.00,BKN,SCT,0.00,0.0,WeatherDisplay:10.37,2013-02-10 02:50:00,
2013-02-09 21:55:00,33.6,24.5,30.35,NNE,30,0.0,1.0,69,0.00,BKN,SCT,0.00,0.0,WeatherDisplay:10.37,2013-02-10 02:55:00,
2013-02-09 22:00:00,33.2,24.5,30.35,NNE,30,0.0,1.0,70,0.00,BKN,SCT,0.00,0.0,WeatherDisplay:10.37,2013-02-10 03:00:00,
2013-02-09 22:05:00,33.0,24.3,30.35,NNE,30,0.0,0.0,70,0.00,BKN,SCT,0.00,0.0,WeatherDisplay:10.37,2013-02-10 03:05:00,
2013-02-09 22:10:00,32.8,24.1,30.35,NNE,30,0.0,0.0,70,0.00,BKN,SCT,0.00,0.0,WeatherDisplay:10.37,2013-02-10 03:10:00,
2013-02-09 22:15:00,32.7,24.0,30.35,NNE,30,0.0,0.0,70,0.00,BKN,SCT,0.00,0.0,WeatherDisplay:10.37,2013-02-10 03:15:00,
2013-02-09 22:20:00,32.6,23.9,30.34,NNE,30,0.0,0.0,70,0.00,BKN,SCT,0.00,0.0,WeatherDisplay:10.37,2013-02-10 03:20:00,
2013-02-09 22:25:00,32.5,23.8,30.34,NNE,30,0.0,0.0,70,0.00,BKN,SCT,0.00,0.0,WeatherDisplay:10.37,2013-02-10 03:25:00,
2013-02-09 22:30:00,32.3,24.0,30.34,NNE,30,0.0,0.0,71,0.00,BKN,SCT,0.00,0.0,WeatherDisplay:10.37,2013-02-10 03:30:00,
2013-02-09 22:35:00,32.2,23.8,30.34,NNE,30,0.0,0.0,71,0.00,BKN,SCT,0.00,0.0,WeatherDisplay:10.37,2013-02-10 03:35:00,
2013-02-09 22:40:00,32.0,24.0,30.34,NNE,30,0.0,0.0,72,0.00,BKN,SCT,0.00,0.0,WeatherDisplay:10.37,2013-02-10 03:40:00,
2013-02-09 22:45:00,31.8,23.8,30.34,NNE,30,0.0,0.0,72,0.00,BKN,SCT,0.00,0.0,WeatherDisplay:10.37,2013-02-10 03:45:00,
2013-02-09 22:50:00,31.6,23.6,30.34,NNE,30,0.0,0.0,72,0.00,BKN,SCT,0.00,0.0,WeatherDisplay:10.37,2013-02-10 03:50:00,
2013-02-09 22:55:00,31.5,23.8,30.34,NNE,30,0.0,0.0,73,0.00,BKN,SCT,0.00,0.0,WeatherDisplay:10.37,2013-02-10 03:55:00,
2013-02-09 23:00:00,31.3,23.7,30.34,NNE,30,0.0,0.0,73,0.00,BKN,SCT,0.00,0.0,WeatherDisplay:10.37,2013-02-10 04:00:00,
2013-02-09 23:05:00,31.2,23.5,30.34,NNE,30,0.0,0.0,73,0.00,BKN,SCT,0.00,0.0,WeatherDisplay:10.37,2013-02-10 04:05:00,
2013-02-09 23:10:00,31.0,23.4,30.34,NNE,30,0.0,0.0,73,0.00,BKN,SCT,0.00,0.0,WeatherDisplay:10.37,2013-02-10 04:10:00,
2013-02-09 23:15:00,30.9,23.6,30.34,NNE,30,0.0,0.0,74,0.00,BKN,SCT,0.00,0.0,WeatherDisplay:10.37,2013-02-10 04:15:00,
2013-02-09 23:20:00,30.7,23.4,30.34,NNE,30,0.0,0.0,74,0.00,BKN,SCT,0.00,0.0,WeatherDisplay:10.37,2013-02-10 04:20:00,
2013-02-09 23:25:00,30.6,23.3,30.34,NNE,30,0.0,0.0,74,0.00,BKN,SCT,0.00,0.0,WeatherDisplay:10.37,2013-02-10 04:25:00,
2013-02-09 23:30:00,30.5,23.5,30.35,NNE,30,0.0,0.0,75,0.00,BKN,SCT,0.00,0.0,WeatherDisplay:10.37,2013-02-10 04:30:00,
2013-02-09 23:35:00,30.3,23.3,30.35,NNE,30,0.0,0.0,75,0.00,BKN,SCT,0.00,0.0,WeatherDisplay:10.37,2013-02-10 04:35:00,
2013-02-09 23:40:00,30.2,23.2,30.35,NNE,30,0.0,0.0,75,0.00,BKN,SCT,0.00,0.0,WeatherDisplay:10.37,2013-02-10 04:40:00,
2013-02-09 23:45:00,30.0,23.1,30.35,NNE,30,0.0,0.0,75,0.00,BKN,SCT,0.00,0.0,WeatherDisplay:10.37,2013-02-10 04:45:00,
2013-02-09 23:50:00,29.8,23.5,30.35,NNE,30,0.0,2.0,77,0.00,BKN,SCT,0.00,0.0,WeatherDisplay:10.37,2013-02-10 04:50:00,
2013-02-09 23:55:00,29.7,23.4,30.34,NNE,30,0.0,0.0,77,0.00,BKN,SCT,0.00,0.0,WeatherDisplay:10.37,2013-02-10 04:55:00,